Location: B?lite?ti
(46.2833°N, 22.7333°E)
Time: 04:06:46
(UTC+00:00)

YAOGAN 1 - Pass Details

Date: 24 January 2021
Orbit: 618 x 620 km, 97.9° (Epoch: 26 February)

Event Time Altitude Azimuth Distance (km) Brightness Sun altitude
Rises 16:24:15 0° 141° (SE) 2,887 5.8 -10.8°
Reaches altitude 10° 16:26:34 10° 133° (SE) 1,986 4.9 -11.2°
Maximum altitude 16:30:28 34° 68° (ENE) 1,032 3.2 -11.8°
Drops below altitude 10° 16:34:23 10° 4° (N) 1,999 5.0 -12.5°
Sets 16:36:43 0° 355° (N) 2,909 5.9 -12.9°
